www.pogodaiklimat.ru

Погода и климат >> Архив погоды >> Мексика >> Tulancingo


ПОГОДА в Tulancingo

  • Прогноз погоды в Tulancingo
  • Монитор погоды в Tulancingo
  • Климат города

АРХИВ ПОГОДЫ в Tulancingo

Время (UTC), дата Ветер
(напр.,м/с)
 
Видим.   Явления Облачность Т
(С)
Тd
(С)
f
(%)
Тe
(С)
Тes
(С)
Комфортность P
(гПа)
Po
(гПа)
Тmin
(С)
Tmax
(С)
R
(мм)
R24
(мм)
S
(см)
18 12.09 штиль 0 20 км 1/1 800 м
[Cu hum]
+19.2 +3.4 35 +19 +43 опасность
простуды
1019.7 786.6 +4.6 +20.4
21 12.09 СВ 3 20 км мгла 1/1 800 м
[Cu hum]
+22.4 +6.1 35 +23 +33 комфорт 1015.6 784.9
00 13.09 СВ 2 20 км мгла ясно +19.8 +11.0 57 +22 +22 комфорт 1011.1 784.7 +4.6 +23.0
03 13.09 СВ 1 18 км мгла ясно +13.8 +11.3 85 +14 +14 1011.1 785.7
06 13.09 В 1 18 км мгла ясно +11.2 +8.9 86 +11 +11 1012.8 785.9 +4.6 +23.0
09 13.09 СВ 1 18 км мгла ясно +8.2 +6.8 91 +7 +7 1014.7 785.3
12 13.09 Ю 1 18 км мгла ясно +7.2 +3.4 77 +6 +6 1017.6 785.2 +6.4 +23.0
15 13.09 штиль 0 20 км мгла 1/0 2000 м
[Ac trans]
+15.8 +4.0 45 +16 +25 1019.6 786.3
18 13.09 ЮВ 2 20 км мгла 3/0 2000 м
[Ac trans Cc]
+22.8 +8.9 41 +24 +42 комфорт 1016.4 785.6 +6.4 +24.0
21 13.09 СВ 2 20 км мгла 8/0 2000 м
[Ac und]
+23.1 +9.1 41 +25 +30 комфорт 1011.4 784.3
00 14.09 СЗ 1 20 км мгла 8/0 2000 м
[Ac und]
+19.0 +11.0 60 +21 +21 комфорт 1009.0 784.5 +6.4 +25.5
03 14.09 штиль 0 18 км мгла 8/0
[Ac trans]
+16.0 +9.7 66 +16 +16 1009.9 786.0
06 14.09 В 2 18 км мгла 6/0
[Ac trans]
+14.6 +8.5 67 +14 +14 1011.5 786.1 +6.4 +25.5
09 14.09 С 1 18 км мгла 8/0
[Ac trans]
+13.8 +10.4 80 +14 +14 1012.5 785.1
12 14.09 Ю 1 18 км мгла 6/0
[Ac und]
+13.8 +11.3 85 +14 +14 1014.3 785.4 +13.2 +25.5
15 14.09 штиль 0 20 км мгла 5/0 2000 м
[Ac trans]
+17.6 +12.2 71 +18 +24 1015.8 786.5
18 14.09 СВ 1 20 км мгла 1/0
[Cc]
+24.4 +8.3 36 +25 +47 комфорт 1013.3 785.9 +13.2 +25.2
21 14.09 СВ 2 18 км мгла 5/1 1020 м
[Cu hum Ac und]
+25.8 +8.2 33 +26 +34 жарко 1008.6 784.3
00 15.09 СВ 2 18 км мгла 5/0 2000 м
[Ac und]
+21.0 +10.4 51 +24 +24 комфорт 1007.4 784.7 +13.2 +27.1
03 15.09 СВ 1 18 км мгла 3/0 2000 м
[Ac und]
+17.2 +8.0 55 +18 +18 1009.0 786.3
06 15.09 В 1 18 км мгла ясно +13.6 +9.4 76 +14 +14 1010.8 786.3 +13.2 +27.1
09 15.09 СВ 1 18 км мгла ясно +11.6 +8.4 81 +11 +11 1012.2 785.1
12 15.09 СВ 1 18 км мгла 6/0 2000 м
[Ac und]
+12.0 +6.9 71 +12 +12 1014.6 785.2 +11.0 +27.1
15 15.09 ЮЗ 2 20 км мгла 1/0 2000 м
[Ac trans]
+18.6 +8.1 50 +20 +26 1016.7 786.4
18 15.09 СВ 3 20 км ясно +24.2 +8.4 36 +25 +41 комфорт 1013.9 785.7 +11.0 +25.2
21 15.09 ЮЗ 1 20 км мгла 3/1 800 м
[Cu hum Ci fib]
+26.4 +8.6 32 +26 +39 жарко 1009.0 784.2
00 16.09 СВ 2 18 км мгла 3/1 600 м
[Cu hum Ac und]
+22.4 +13.1 56 +25 +26 комфорт 1006.9 784.5 +11.0 +26.9
03 16.09 В 1 18 км мгла 6/0
[Ac trans]
+17.2 +13.1 77 +18 +18 1008.2 785.9
06 16.09 В 1 18 км мгла 6/0
[Ac und]
+16.2 +13.6 85 +17 +17 1009.5 785.8 +11.0 +26.9
09 16.09 В 2 18 км мгла 9/0
[Ac und]
+13.2 +9.4 78 +13 +13 1011.2 785.2
12 16.09 В 1 18 км мгла 6/0
[Ac und]
+12.2 +11.3 94 +12 +12 1014.1 783.5 +11.5 +26.9
15 16.09 СЗ 2 18 км мгла 5/0 2000 м
[Ac trans]
+15.4 +11.4 77 +15 +20 1017.2 787.3
18 16.09 СЗ 3 20 км мгла 3/1 600 м
[Cu hum Ci]
+24.4 +15.4 57 +27 +41 жарко 1014.4 786.0 +11.5 +25.4
21 16.09 З 1 18 км мгла {туман} 5/4 600 м
[Sc diur, vesp Ci]
+23.6 +15.1 59 +26 +35 жарко 1010.5 784.6
00 17.09 СВ 1 15 км мгла {туман} 9/9 300 м
[Sc diur, vesp]
+19.3 +14.4 73 +22 +22 комфорт 1009.3 785.0 +11.5 +26.0
03 17.09 СВ 1 10 км дымка {туман} 10/8 450 м
[St As op]
+17.3 +14.6 84 +18 +18 1011.1 787.0
06 17.09 СВ 1 10 км дымка {туман} 10/10 450 м
[St]
+16.5 +14.9 90 +17 +17 1012.5 787.3 +11.5 +26.0
09 17.09 штиль 0 15 км {туман} 6/4 600 м
[Sc diur, vesp As op]
+16.0 +13.6 86 +16 +16 1013.0 786.4
12 17.09 штиль 0 15 км мгла {туман} 9/4 600 м
[Sc diur, vesp Ac und]
+15.6 +13.8 89 +15 +15 1014.6 787.0 +15.0 +26.0
15 17.09 ЮЗ 1 20 км мгла {туман} 5/1 600 м
[Cu med, cong Ac trans Ci]
+19.2 +13.3 69 +22 +27 комфорт 1016.0 788.0
18 17.09 ЮВ 1 20 км мгла {туман} 8/5 600 м
[Cu med, cong Ci]
+23.0 +15.7 63 +27 +37 душно 1013.7 787.3 +15.0 +26.0
21 17.09 СВ 3 18 км мгла 4/3 600 м
[Cu hum Ci fib]
+23.6 +15.3 60 +27 +34 жарко 1009.9 785.6
00 18.09 СВ 1 15 км мгла 5/4 600 м
[Cb cap Ci sp]
+19.6 +14.1 71 +22 +23 комфорт 1009.5 786.1 +15.0 +26.0
03 18.09 СВ 1 15 км мгла 4/3 600 м
[Sc diur, vesp Cs]
+17.3 +13.9 80 +18 +18 1011.8 787.8
06 18.09 СВ 1 10 км дымка {туман} 10/10 300 м
[St]
+16.0 +14.2 89 +17 +17 1013.3 787.8 0.2
09 18.09 В 1 5000 м дымка {туман} 10/10 360 м
[St]
+15.4 +14.5 94 +16 +16 1013.7 786.8 0.8
12 18.09 ЮЗ 1 5000 м дымка 4/0
[Ac trans Cs]
+14.0 +12.8 92 +14 +14 1015.4 787.0 0.8
15 18.09 ЮВ 1 20 км мгла 6/4 800 м
[Cu med, cong Ci]
+18.2 +13.5 74 +20 +24 1017.4 788.4
18 18.09 В 3 20 км 8/5 800 м
[Cu med, cong Ci]
+22.6 +13.0 55 +26 +33 жарко 1015.6 787.9 +12.6 +23.5
21 18.09 ЮВ 1 18 км мгла 5/4 600 м
[Cu med, cong Ci fib]
+24.0 +14.3 55 +27 +35 жарко 1011.6 786.1
00 19.09 ЮВ 1 18 км мгла 5/4 600 м
[Cb calv Ci fib]
+24.0 +14.1 54 +26 +27 жарко 1009.6 785.8 +12.6 +24.7
03 19.09 ЮВ 1 15 км мгла {туман} 3/3 600 м
[Sc diur, vesp]
+16.6 +14.0 85 +17 +17 1010.6 786.9
06 19.09 ЮВ 1 10 км мгла {туман} 8/8 450 м
[Sc diur, vesp]
+15.7 +13.9 89 +16 +16 1012.8 787.6 +12.6 +24.7
09 19.09 ЮВ 1 10 км {туман} 3/3 600 м
[Sc diur, vesp]
+15.2 +13.7 91 +16 +16 1013.1 786.5
12 19.09 штиль 0 18 км {туман} ясно +12.4 +11.2 92 +12 +12 1015.5 786.9 +12.0 +24.7

 

Местоположение метеостанции Tulancingo (Мексика): широта 20.08 долгота -98.37 высота над уровнем моря 2181 м.

В архиве по умолчанию представлена погода в Tulancingo за последнюю неделю. Архивные данные за месяц целиком и за предыдущие месяцы, начиная с января 2011 года, Вы можете получить, выбрав интересующий диапазон дат из раскрывающегося списка и нажав кнопку "Ввод!".

Внимание! Время в таблицах - всемирное. Для получения местного времени необходимо прибавить поправку, которая в Tulancingo равна -6 ч.

Смотрите также архив погоды в соседних городах и на ближайших метеорологических станциях:

Погода в Pachuca (Мексика) (40 км)
Погода в Tlaxcala (Мексика) (85 км)
Погода в Tlaxcala Airport (Мексика) (87 км)
Погода в Mexico City (Мексика) (114 км)
Погода в Puebla (Мексика) (117 км)
Погода в Geografia Unam (Мексика) (120 км)
Погода в Tuxpan. Ver. (Мексика) (140 км)
Погода в Matlapa (Мексика) (145 км)
Погода в Cuernavaca (Мексика) (161 км)
Погода в Toluca (Мексика) (164 км)

Пояснения к столбцам:

Ветер - указаны скорость ветра в м/с - средняя за 10 мин, порывы в срок и между сроками (в фигурных скобках) и направление, откуда дует ветер: С - северный, СВ - северо-восточный, В - восточный, ЮВ - юго-восточный, Ю - южный, ЮЗ - юго-западный, З - западный, СЗ - северо-западный.
Видимость - горизонтальная дальность видимости в метрах или километрах. При видимости от 1 до 10 км при отсутствии осадков обычно наблюдается дымка, при ухудшении видимости до 1 км и менее - туман. В сухую погоду видимость может ухудшаться дымом, пылью или мглою.
Явления - указаны атмосферные явления, наблюдавшиеся в срок или в последний час перед сроком; фигурными скобками обозначены явления, наблюдавшиеся между сроками (за 1-3 часа до срока); квадратными скобками обозначены град или гололедные отложения с указанием их диаметра в мм.
Облачность - указаны через наклонную черту общая и нижняя облачность в баллах и высота нижней границы облаков в метрах; квадратными скобками обозначены формы облаков: Ci - перистые, Cs - перисто-слоистые, Cc - перисто-кучевые, Ac - высококучевые, As - высокослоистые, Sc - слоисто-кучевые, Ns - слоисто-дождевые, Cu - кучевые, Cb - кучево-дождевые. Подробнее классификацию облаков см. в Атласе облаков (PDF).
T - Температура воздуха - температура, измеренная на высоте 2 м над землей.
Td - Температура точки росы - температура, при понижении до которой содержащийся в воздухе водяной пар достигнет насыщения.
f - Относительная влажность воздуха - влажноcть воздуха, измеренная на высоте 2 м над землей.
Te - Эффективная температура - температура, которую ощущает одетый по сезону человек в тени. Характеристика душности погоды. При расчете учитывается влияние влажности воздуха и скорости ветра на теплоощущения человека.
Tes - Эффективная температура на солнце - температура, которую ощущает человек, с поправкой на солнечный нагрев. Характеристика знойности погоды. Зависит от высоты солнца над горизонтом, облачности и скорости ветра. Ночью, в пасмурную погоду, а также при ветре 12 м/с и более поправка равна нулю.
P - Атмосферное давление - приведенное к уровню моря атмосферное давление.
Po - Атмосферное давление - измеренное на уровне метеостанции атмосферное давление.
Tmin - Минимальная температура - минимум температуры воздуха на высоте 2 м над землей.
Tmax - Максимальная температура - максимум температуры воздуха на высоте 2 м над землей.
R - Количество осадков - Количество выпавших осадков за период времени, мм. При наведении курсора мыши на число - период времени, за который выпало указанное количество осадков.
R24 - Количество осадков - Количество выпавших осадков за 24 часа, мм.
S - Снежный покров - Высота снежного покрова, см. При наведении курсора мыши на число - состояние снежного покрова и степень покрытия местности в баллах.